Precipitable_Water
1.38 1.44 1.53 1.56 1.59 1.61 1.58 1.53 1.51 1.47 1.44 1.35 1.30 1.24 1.27 1.22 1.01 0.86 0.88 0.92 0.94 0.92 0.90 0.87 0.85 0.79 0.81 0.81 0.84 0.88 0.87 0.90 0.89 0.86 0.85 0.86 0.90 0.96 0.99 0.98 0.96 0.93 0.91 0.88 0.85 0.82 0.78 0.75 0.72 0.70 0.68 0.67 0.66 0.64 0.62 0.64 0.65 0.64 0.66 0.68 0.65 0.68 0.72 0.77 0.77 0.73 0.70 0.66 0.64 0.61 0.58 0.54 0.51 0.48 0.48 0.48 0.49 0.51 0.52 0.53 0.55 0.58 0.60 0.62 0.64
1.42 1.47 1.48 1.50 1.52 1.56 1.61 1.62 1.56 1.55 1.51 1.37 1.36 1.31 1.29 1.26 1.15 0.98 0.97 0.96 0.95 0.95 0.92 0.85 0.81 0.79 0.79 0.83 0.87 0.89 0.88 0.87 0.88 0.85 0.82 0.82 0.84 0.89 0.94 0.96 0.96 0.93 0.92 0.90 0.86 0.84 0.80 0.76 0.74 0.72 0.69 0.66 0.66 0.64 0.59 0.56 0.60 0.62 0.66 0.68 0.63 0.66 0.71 0.74 0.78 0.73 0.70 0.67 0.64 0.60 0.59 0.56 0.52 0.49 0.48 0.48 0.47 0.48 0.51 0.52 0.54 0.56 0.56 0.59 0.61
1.42 1.42 1.45 1.48 1.50 1.52 1.53 1.54 1.58 1.63 1.61 1.51 1.46 1.38 1.39 1.33 1.25 1.14 1.08 1.05 0.99 0.99 0.94 0.89 0.84 0.79 0.81 0.85 0.89 0.93 0.91 0.89 0.91 0.90 0.85 0.84 0.85 0.87 0.91 0.93 0.93 0.93 0.93 0.91 0.88 0.86 0.82 0.78 0.75 0.74 0.71 0.68 0.66 0.64 0.63 0.59 0.56 0.56 0.62 0.67 0.61 0.65 0.68 0.72 0.77 0.73 0.69 0.66 0.64 0.61 0.59 0.56 0.51 0.47 0.46 0.46 0.47 0.47 0.49 0.51 0.53 0.54 0.56 0.58 0.59
1.43 1.40 1.40 1.43 1.45 1.46 1.49 1.48 1.54 1.60 1.66 1.61 1.55 1.45 1.40 1.40 1.37 1.31 1.21 1.12 1.03 0.99 0.99 0.94 0.90 0.87 0.83 0.80 0.86 0.88 0.89 0.89 0.90 0.92 0.90 0.89 0.89 0.91 0.92 0.93 0.92 0.90 0.92 0.91 0.89 0.87 0.85 0.82 0.77 0.74 0.74 0.71 0.67 0.64 0.66 0.62 0.56 0.56 0.58 0.63 0.59 0.64 0.66 0.70 0.75 0.73 0.70 0.66 0.64 0.62 0.60 0.57 0.53 0.49 0.47 0.47 0.47 0.47 0.48 0.49 0.50 0.52 0.55 0.57 0.58
1.42 1.39 1.37 1.38 1.40 1.42 1.45 1.50 1.52 1.58 1.64 1.65 1.61 1.55 1.47 1.44 1.40 1.41 1.35 1.23 1.09 1.01 1.04 1.01 0.95 0.93 0.94 0.91 0.90 0.87 0.87 0.87 0.89 0.92 0.91 0.90 0.90 0.92 0.93 0.94 0.93 0.91 0.90 0.90 0.88 0.88 0.86 0.84 0.81 0.77 0.74 0.72 0.72 0.70 0.67 0.66 0.59 0.51 0.54 0.58 0.54 0.61 0.63 0.68 0.74 0.72 0.70 0.66 0.65 0.62 0.61 0.58 0.52 0.49 0.46 0.45 0.44 0.44 0.46 0.47 0.50 0.51 0.51 0.53 0.55
1.40 1.38 1.38 1.38 1.47 1.51 1.47 1.46 1.50 1.55 1.58 1.60 1.56 1.56 1.52 1.48 1.45 1.44 1.43 1.37 1.19 1.05 1.01 0.98 0.99 0.99 0.95 0.93 0.90 0.88 0.89 0.87 0.89 0.89 0.90 0.90 0.90 0.92 0.94 0.95 0.96 0.94 0.92 0.90 0.88 0.87 0.86 0.84 0.82 0.79 0.76 0.74 0.74 0.73 0.71 0.67 0.63 0.57 0.52 0.58 0.53 0.56 0.62 0.65 0.74 0.71 0.71 0.66 0.65 0.65 0.63 0.59 0.53 0.48 0.46 0.45 0.45 0.45 0.47 0.49 0.49 0.49 0.49 0.49 0.51
1.38 1.38 1.39 1.43 1.39 1.42 1.42 1.47 1.50 1.53 1.54 1.58 1.56 1.54 1.56 1.48 1.48 1.46 1.48 1.44 1.34 1.17 1.05 0.99 0.98 0.96 0.94 0.93 0.85 0.84 0.85 0.85 0.88 0.89 0.89 0.90 0.91 0.91 0.94 0.96 0.97 0.96 0.94 0.91 0.90 0.87 0.86 0.84 0.83 0.82 0.80 0.78 0.76 0.74 0.73 0.70 0.66 0.61 0.54 0.56 0.58 0.54 0.60 0.64 0.72 0.73 0.70 0.69 0.66 0.66 0.64 0.60 0.54 0.49 0.46 0.44 0.45 0.46 0.47 0.48 0.49 0.49 0.49 0.49 0.49
1.32 1.35 1.36 1.42 1.36 1.29 1.41 1.50 1.52 1.51 1.48 1.52 1.56 1.56 1.55 1.50 1.50 1.52 1.48 1.45 1.42 1.30 1.18 1.04 1.00 0.94 0.94 0.91 0.88 0.87 0.84 0.81 0.80 0.84 0.89 0.92 0.91 0.92 0.94 0.98 0.99 0.98 0.98 0.95 0.92 0.90 0.88 0.87 0.86 0.85 0.83 0.81 0.79 0.76 0.74 0.72 0.70 0.65 0.59 0.54 0.58 0.55 0.57 0.62 0.70 0.78 0.72 0.72 0.70 0.68 0.66 0.62 0.57 0.51 0.48 0.46 0.45 0.45 0.47 0.48 0.48 0.47 0.49 0.50 0.50
1.24 1.31 1.32 1.30 1.29 1.37 1.42 1.46 1.46 1.38 1.40 1.49 1.52 1.52 1.50 1.44 1.45 1.56 1.53 1.49 1.46 1.42 1.32 1.19 1.06 1.00 0.94 0.90 0.89 0.88 0.84 0.81 0.79 0.81 0.86 0.85 0.88 0.92 0.93 0.95 0.98 1.01 1.00 0.98 0.95 0.94 0.91 0.90 0.89 0.87 0.86 0.84 0.82 0.80 0.78 0.77 0.75 0.71 0.67 0.59 0.57 0.58 0.53 0.60 0.69 0.80 0.76 0.73 0.73 0.69 0.67 0.64 0.59 0.54 0.50 0.47 0.46 0.46 0.47 0.48 0.48 0.47 0.47 0.49 0.50
1.19 1.18 1.21 1.28 1.33 1.37 1.40 1.48 1.46 1.45 1.46 1.51 1.51 1.51 1.51 1.48 1.42 1.50 1.54 1.55 1.51 1.46 1.40 1.33 1.23 1.12 1.04 0.95 0.92 0.91 0.89 0.84 0.80 0.81 0.80 0.79 0.82 0.85 0.89 0.92 0.95 0.97 0.99 0.99 0.97 0.95 0.93 0.92 0.91 0.88 0.87 0.85 0.85 0.83 0.82 0.80 0.79 0.75 0.73 0.69 0.62 0.59 0.51 0.58 0.65 0.79 0.81 0.75 0.73 0.70 0.67 0.65 0.60 0.57 0.51 0.48 0.46 0.46 0.47 0.47 0.47 0.46 0.46 0.47 0.48
0.97 1.01 1.01 1.13 1.30 1.38 1.39 1.41 1.41 1.44 1.45 1.47 1.48 1.49 1.48 1.48 1.47 1.47 1.55 1.59 1.56 1.55 1.52 1.44 1.33 1.22 1.14 1.06 1.01 0.96 0.95 0.91 0.84 0.79 0.78 0.78 0.78 0.80 0.85 0.86 0.89 0.91 0.95 0.97 0.97 0.95 0.92 0.91 0.90 0.86 0.85 0.86 0.85 0.85 0.85 0.83 0.81 0.80 0.77 0.74 0.69 0.66 0.59 0.55 0.64 0.75 0.80 0.77 0.71 0.70 0.68 0.65 0.62 0.59 0.53 0.49 0.46 0.45 0.46 0.47 0.47 0.47 0.46 0.47 0.48
0.73 0.78 0.86 1.00 1.12 1.24 1.34 1.40 1.39 1.37 1.37 1.40 1.44 1.46 1.45 1.44 1.47 1.47 1.51 1.58 1.61 1.59 1.57 1.50 1.39 1.26 1.19 1.15 1.11 1.07 1.02 0.99 0.91 0.83 0.81 0.81 0.79 0.81 0.79 0.83 0.85 0.86 0.87 0.90 0.92 0.91 0.90 0.88 0.86 0.83 0.82 0.83 0.85 0.85 0.85 0.84 0.82 0.83 0.81 0.80 0.75 0.71 0.68 0.63 0.59 0.74 0.83 0.80 0.70 0.69 0.69 0.66 0.63 0.61 0.56 0.50 0.47 0.46 0.48 0.48 0.48 0.47 0.46 0.47 0.48
0.61 0.63 0.67 0.77 0.89 1.02 1.17 1.30 1.40 1.36 1.37 1.34 1.39 1.42 1.47 1.46 1.44 1.49 1.49 1.51 1.55 1.61 1.60 1.58 1.39 1.32 1.26 1.19 1.15 1.15 1.12 1.09 1.00 0.92 0.86 0.85 0.85 0.81 0.80 0.81 0.81 0.81 0.83 0.87 0.88 0.88 0.89 0.88 0.85 0.82 0.80 0.81 0.83 0.84 0.84 0.83 0.82 0.82 0.83 0.82 0.80 0.74 0.72 0.72 0.62 0.72 0.85 0.85 0.78 0.68 0.69 0.67 0.65 0.63 0.58 0.52 0.48 0.49 0.48 0.47 0.47 0.46 0.46 0.46 0.47
0.54 0.56 0.58 0.61 0.66 0.76 0.89 1.06 1.21 1.28 1.31 1.37 1.37 1.38 1.37 1.40 1.43 1.40 1.49 1.45 1.48 1.54 1.56 1.51 1.36 1.30 1.22 1.16 1.13 1.17 1.18 1.15 1.09 1.05 1.00 0.96 0.92 0.86 0.82 0.78 0.82 0.87 0.90 0.90 0.89 0.88 0.88 0.91 0.90 0.87 0.84 0.83 0.84 0.85 0.85 0.85 0.84 0.83 0.84 0.84 0.84 0.81 0.75 0.75 0.65 0.72 0.85 0.88 0.85 0.76 0.67 0.69 0.66 0.64 0.61 0.55 0.50 0.49 0.48 0.47 0.46 0.46 0.46 0.46 0.46
0.54 0.56 0.55 0.56 0.56 0.57 0.63 0.75 0.90 1.05 1.14 1.24 1.32 1.34 1.36 1.37 1.38 1.33 1.33 1.41 1.41 1.49 1.50 1.52 1.33 1.39 1.37 1.24 1.11 1.03 1.11 1.12 1.15 1.13 1.11 1.07 1.03 0.95 0.90 0.87 0.89 0.94 0.96 0.94 0.91 0.89 0.88 0.90 0.91 0.91 0.89 0.88 0.87 0.88 0.88 0.87 0.85 0.85 0.86 0.85 0.86 0.83 0.76 0.73 0.71 0.69 0.83 0.91 0.90 0.83 0.74 0.69 0.68 0.66 0.63 0.57 0.51 0.49 0.48 0.47 0.46 0.46 0.46 0.45 0.46
0.53 0.55 0.57 0.57 0.57 0.56 0.57 0.58 0.61 0.70 0.80 0.91 1.04 1.12 1.26 1.30 1.32 1.35 1.36 1.31 1.37 1.39 1.53 1.52 1.45 1.36 1.14 1.14 1.15 1.11 0.98 1.04 1.08 1.15 1.20 1.17 1.12 1.04 1.00 0.96 0.98 1.00 1.01 0.98 0.97 0.95 0.93 0.93 0.92 0.93 0.94 0.94 0.93 0.91 0.89 0.88 0.88 0.88 0.88 0.88 0.87 0.86 0.81 0.74 0.70 0.66 0.76 0.93 0.94 0.89 0.82 0.71 0.68 0.67 0.65 0.60 0.54 0.49 0.48 0.46 0.45 0.46 0.46 0.46 0.46
0.49 0.52 0.53 0.53 0.56 0.58 0.59 0.59 0.58 0.58 0.59 0.61 0.68 0.79 0.93 1.06 1.15 1.22 1.25 1.24 1.24 1.33 1.44 1.51 1.46 1.48 1.32 1.20 1.14 1.08 1.04 1.11 1.16 1.16 1.23 1.18 1.18 1.15 1.11 1.06 1.03 1.04 1.03 1.02 1.03 1.02 1.02 1.01 1.01 1.02 1.01 1.02 1.01 0.99 0.96 0.94 0.92 0.91 0.91 0.91 0.90 0.89 0.87 0.80 0.75 0.67 0.67 0.87 0.96 0.98 0.93 0.83 0.72 0.69 0.68 0.64 0.58 0.51 0.49 0.46 0.44 0.46 0.47 0.47 0.46
0.49 0.50 0.51 0.51 0.51 0.54 0.57 0.59 0.59 0.59 0.59 0.59 0.60 0.61 0.66 0.74 0.84 0.95 1.06 1.16 1.16 1.18 1.24 1.40 1.46 1.44 1.45 1.38 1.32 1.16 1.15 1.21 1.15 0.99 1.26 1.28 1.24 1.21 1.18 1.17 1.14 1.10 1.11 1.10 1.09 1.09 1.10 1.07 1.08 1.07 1.08 1.08 1.08 1.08 1.06 1.03 1.00 0.97 0.95 0.94 0.93 0.92 0.91 0.89 0.83 0.75 0.65 0.74 0.95 0.98 1.00 0.95 0.84 0.72 0.70 0.68 0.63 0.55 0.50 0.47 0.45 0.46 0.48 0.47 0.47
0.50 0.49 0.47 0.46 0.45 0.46 0.48 0.52 0.54 0.56 0.57 0.56 0.55 0.56 0.58 0.60 0.65 0.68 0.75 0.84 0.95 0.99 1.08 1.17 1.29 1.36 1.39 1.40 1.41 1.41 1.38 1.22 1.11 1.16 1.05 1.20 1.27 1.24 1.23 1.25 1.22 1.18 1.15 1.15 1.16 1.16 1.18 1.19 1.17 1.17 1.16 1.17 1.17 1.16 1.15 1.13 1.09 1.05 1.02 0.99 0.98 0.96 0.95 0.94 0.91 0.86 0.77 0.67 0.84 0.98 1.00 1.01 0.96 0.86 0.74 0.71 0.68 0.60 0.52 0.49 0.47 0.48 0.49 0.48 0.49
0.51 0.50 0.49 0.49 0.47 0.44 0.43 0.42 0.44 0.46 0.45 0.44 0.45 0.48 0.50 0.53 0.56 0.59 0.61 0.64 0.65 0.67 0.75 0.89 1.00 1.15 1.30 1.28 1.30 1.34 1.37 1.38 1.35 1.22 1.14 1.07 1.14 1.30 1.34 1.31 1.29 1.28 1.26 1.23 1.20 1.19 1.20 1.23 1.23 1.23 1.24 1.25 1.25 1.23 1.22 1.22 1.21 1.17 1.12 1.07 1.05 1.02 1.00 0.98 0.96 0.93 0.90 0.82 0.74 0.91 1.04 1.07 1.04 0.97 0.87 0.75 0.72 0.66 0.56 0.51 0.50 0.50 0.51 0.50 0.49
0.53 0.51 0.50 0.49 0.48 0.46 0.45 0.41 0.38 0.35 0.34 0.34 0.35 0.36 0.37 0.38 0.40 0.43 0.47 0.52 0.56 0.58 0.56 0.56 0.63 0.75 0.92 1.05 1.13 1.14 1.17 1.21 1.26 1.28 1.16 1.08 1.08 1.14 1.19 1.32 1.33 1.32 1.34 1.34 1.31 1.28 1.25 1.24 1.27 1.28 1.28 1.28 1.29 1.28 1.28 1.28 1.28 1.27 1.25 1.20 1.15 1.10 1.07 1.05 1.03 0.99 0.95 0.92 0.84 0.86 0.97 1.05 1.08 1.05 0.98 0.87 0.77 0.72 0.62 0.55 0.52 0.53 0.54 0.53 0.51
0.49 0.50 0.50 0.50 0.48 0.47 0.44 0.43 0.43 0.43 0.41 0.39 0.37 0.36 0.36 0.35 0.35 0.35 0.37 0.37 0.43 0.47 0.49 0.52 0.55 0.57 0.60 0.65 0.69 0.77 0.82 0.88 0.96 1.04 1.10 1.13 1.01 1.05 1.12 1.11 1.08 1.20 1.31 1.33 1.37 1.37 1.35 1.31 1.28 1.29 1.31 1.32 1.33 1.32 1.31 1.30 1.30 1.30 1.31 1.30 1.29 1.25 1.18 1.13 1.09 1.07 1.03 0.99 0.93 0.91 0.92 0.97 1.07 1.09 1.05 0.99 0.87 0.76 0.70 0.59 0.55 0.56 0.57 0.57 0.55
0.49 0.49 0.48 0.48 0.48 0.49 0.47 0.46 0.47 0.46 0.44 0.42 0.42 0.43 0.42 0.40 0.39 0.37 0.36 0.35 0.34 0.36 0.39 0.44 0.48 0.51 0.53 0.54 0.52 0.54 0.56 0.58 0.66 0.77 0.82 0.81 0.82 0.83 0.92 1.02 1.06 1.08 1.20 1.31 1.35 1.39 1.41 1.40 1.37 1.35 1.35 1.36 1.37 1.37 1.35 1.34 1.34 1.33 1.33 1.34 1.35 1.36 1.34 1.31 1.25 1.19 1.13 1.08 1.03 0.96 0.98 0.95 0.97 1.07 1.08 1.06 0.98 0.80 0.75 0.66 0.59 0.58 0.60 0.61 0.60
0.50 0.50 0.49 0.50 0.51 0.50 0.51 0.49 0.47 0.45 0.43 0.44 0.44 0.44 0.43 0.44 0.44 0.43 0.41 0.40 0.39 0.38 0.36 0.33 0.36 0.41 0.46 0.50 0.52 0.55 0.56 0.55 0.58 0.61 0.63 0.68 0.71 0.67 0.69 0.77 0.84 0.94 1.08 1.21 1.29 1.30 1.35 1.39 1.41 1.41 1.41 1.40 1.40 1.40 1.41 1.40 1.39 1.39 1.38 1.37 1.37 1.38 1.39 1.39 1.39 1.37 1.32 1.25 1.18 1.10 1.05 1.02 0.98 0.98 1.07 1.06 1.03 0.90 0.77 0.72 0.64 0.60 0.61 0.65 0.64
0.43 0.45 0.48 0.50 0.50 0.50 0.51 0.49 0.48 0.47 0.46 0.44 0.43 0.42 0.42 0.42 0.43 0.43 0.43 0.42 0.41 0.40 0.36 0.35 0.36 0.35 0.37 0.44 0.48 0.50 0.51 0.57 0.59 0.57 0.58 0.59 0.60 0.55 0.61 0.70 0.63 0.65 0.77 0.88 0.90 1.05 1.15 1.25 1.37 1.42 1.42 1.42 1.41 1.41 1.42 1.42 1.42 1.43 1.43 1.41 1.41 1.40 1.40 1.41 1.42 1.42 1.41 1.39 1.36 1.31 1.23 1.17 1.07 1.04 1.04 1.09 1.11 1.02 0.84 0.75 0.69 0.63 0.62 0.66 0.69
0.43 0.43 0.48 0.51 0.52 0.52 0.51 0.50 0.49 0.48 0.46 0.45 0.42 0.42 0.42 0.41 0.42 0.42 0.42 0.45 0.45 0.44 0.42 0.41 0.40 0.40 0.41 0.38 0.40 0.44 0.47 0.52 0.54 0.55 0.54 0.51 0.48 0.51 0.53 0.59 0.65 0.62 0.69 0.70 0.76 0.73 0.81 0.97 1.16 1.34 1.41 1.42 1.42 1.43 1.43 1.43 1.44 1.45 1.45 1.43 1.42 1.42 1.42 1.41 1.41 1.42 1.41 1.40 1.39 1.38 1.34 1.29 1.25 1.17 1.09 1.10 1.15 1.07 0.94 0.81 0.73 0.66 0.64 0.68 0.71
0.44 0.47 0.49 0.50 0.50 0.51 0.51 0.49 0.48 0.46 0.44 0.42 0.42 0.42 0.43 0.42 0.42 0.43 0.43 0.45 0.45 0.45 0.43 0.43 0.42 0.42 0.41 0.41 0.40 0.40 0.42 0.47 0.51 0.52 0.55 0.53 0.51 0.50 0.51 0.44 0.47 0.55 0.56 0.64 0.66 0.67 0.67 0.76 0.90 1.01 1.20 1.33 1.39 1.41 1.43 1.45 1.45 1.46 1.45 1.44 1.42 1.41 1.42 1.42 1.42 1.41 1.41 1.40 1.38 1.37 1.36 1.33 1.30 1.27 1.20 1.11 1.10 1.03 0.98 0.90 0.81 0.72 0.68 0.71 0.74
0.49 0.50 0.50 0.50 0.49 0.49 0.49 0.47 0.47 0.45 0.44 0.42 0.42 0.43 0.43 0.43 0.42 0.42 0.39 0.44 0.42 0.42 0.43 0.43 0.43 0.44 0.43 0.44 0.42 0.40 0.43 0.44 0.47 0.51 0.54 0.56 0.55 0.54 0.52 0.50 0.45 0.39 0.50 0.51 0.57 0.62 0.74 0.71 0.78 0.86 0.92 1.04 1.19 1.27 1.34 1.38 1.42 1.44 1.44 1.43 1.42 1.40 1.39 1.40 1.41 1.41 1.41 1.40 1.38 1.37 1.36 1.35 1.33 1.31 1.28 1.18 1.11 1.06 0.99 0.96 0.88 0.77 0.72 0.74 0.76
0.50 0.52 0.51 0.51 0.50 0.49 0.46 0.45 0.45 0.44 0.42 0.42 0.43 0.44 0.45 0.44 0.43 0.41 0.40 0.41 0.41 0.40 0.41 0.41 0.42 0.43 0.43 0.43 0.41 0.42 0.43 0.45 0.46 0.49 0.53 0.55 0.55 0.56 0.57 0.51 0.51 0.44 0.38 0.39 0.43 0.50 0.60 0.79 0.72 0.78 0.87 0.92 1.00 1.12 1.17 1.23 1.28 1.32 1.34 1.36 1.37 1.37 1.36 1.35 1.36 1.37 1.39 1.39 1.38 1.38 1.37 1.36 1.35 1.33 1.31 1.25 1.17 1.10 1.03 0.96 0.93 0.84 0.75 0.74 0.77
0.53 0.54 0.53 0.51 0.51 0.49 0.46 0.45 0.44 0.43 0.41 0.42 0.43 0.44 0.45 0.44 0.43 0.42 0.42 0.43 0.41 0.41 0.41 0.41 0.41 0.42 0.42 0.41 0.41 0.40 0.43 0.44 0.44 0.45 0.48 0.51 0.53 0.53 0.53 0.55 0.55 0.47 0.47 0.41 0.41 0.50 0.50 0.64 0.77 0.77 0.88 0.89 0.95 1.00 1.06 1.09 1.12 1.13 1.15 1.21 1.27 1.32 1.35 1.34 1.33 1.33 1.36 1.37 1.36 1.37 1.37 1.37 1.37 1.35 1.32 1.31 1.25 1.16 1.07 1.00 0.92 0.90 0.79 0.74 0.77
0.55 0.55 0.54 0.52 0.50 0.47 0.46 0.45 0.44 0.42 0.43 0.42 0.44 0.44 0.45 0.43 0.43 0.41 0.41 0.42 0.41 0.40 0.41 0.41 0.41 0.41 0.40 0.40 0.41 0.41 0.43 0.43 0.44 0.44 0.44 0.46 0.48 0.51 0.53 0.55 0.53 0.52 0.50 0.49 0.42 0.49 0.58 0.48 0.62 0.81 0.86 0.91 0.94 0.98 1.00 1.00 1.02 1.05 1.08 1.11 1.16 1.24 1.28 1.29 1.28 1.28 1.32 1.35 1.36 1.35 1.36 1.37 1.37 1.36 1.35 1.33 1.32 1.26 1.14 1.05 0.97 0.91 0.83 0.75 0.76
0.57 0.57 0.56 0.54 0.50 0.46 0.47 0.46 0.44 0.43 0.42 0.43 0.44 0.45 0.45 0.43 0.41 0.39 0.39 0.39 0.39 0.38 0.39 0.41 0.41 0.40 0.39 0.39 0.40 0.41 0.43 0.43 0.43 0.43 0.43 0.43 0.44 0.46 0.49 0.51 0.54 0.56 0.55 0.49 0.47 0.47 0.63 0.65 0.63 0.70 0.82 0.88 0.94 0.93 0.94 1.00 1.10 1.09 1.08 1.11 1.15 1.17 1.19 1.22 1.24 1.24 1.29 1.32 1.34 1.36 1.34 1.35 1.36 1.37 1.37 1.36 1.34 1.32 1.23 1.08 0.97 0.92 0.91 0.79 0.77
0.60 0.58 0.57 0.56 0.51 0.48 0.48 0.47 0.45 0.44 0.43 0.44 0.46 0.46 0.44 0.41 0.40 0.39 0.39 0.39 0.37 0.37 0.37 0.37 0.38 0.38 0.38 0.37 0.39 0.41 0.43 0.42 0.42 0.43 0.43 0.43 0.43 0.43 0.44 0.47 0.49 0.53 0.54 0.51 0.44 0.43 0.48 0.65 0.69 0.69 0.75 0.83 0.86 0.94 0.94 0.97 0.99 1.08 1.13 1.10 1.11 1.10 1.13 1.18 1.20 1.21 1.24 1.29 1.31 1.34 1.36 1.35 1.35 1.35 1.37 1.38 1.37 1.35 1.29 1.17 0.99 0.92 0.95 0.87 0.78
0.62 0.60 0.59 0.57 0.53 0.51 0.49 0.47 0.46 0.45 0.46 0.47 0.47 0.46 0.43 0.40 0.39 0.40 0.39 0.39 0.38 0.37 0.37 0.35 0.35 0.36 0.37 0.36 0.37 0.39 0.42 0.41 0.42 0.42 0.43 0.43 0.43 0.42 0.41 0.42 0.43 0.45 0.52 0.50 0.49 0.47 0.42 0.48 0.59 0.70 0.72 0.78 0.72 0.85 0.88 0.89 0.92 0.97 1.00 1.05 1.08 1.06 1.06 1.18 1.23 1.23 1.23 1.23 1.24 1.25 1.30 1.34 1.35 1.35 1.36 1.37 1.37 1.36 1.33 1.25 1.12 0.95 0.95 0.92 0.81
0.63 0.62 0.60 0.57 0.54 0.52 0.50 0.48 0.46 0.46 0.48 0.48 0.48 0.45 0.42 0.40 0.38 0.38 0.39 0.38 0.37 0.36 0.35 0.36 0.36 0.37 0.36 0.35 0.35 0.38 0.40 0.39 0.40 0.42 0.44 0.43 0.45 0.43 0.43 0.43 0.41 0.43 0.46 0.51 0.50 0.46 0.46 0.45 0.54 0.59 0.67 0.76 0.75 0.72 0.80 0.85 0.85 0.90 0.93 0.95 0.99 1.06 1.08 1.05 1.05 1.12 1.16 1.21 1.22 1.22 1.22 1.26 1.33 1.34 1.34 1.36 1.36 1.35 1.34 1.29 1.19 1.08 0.97 0.93 0.88
0.62 0.62 0.61 0.57 0.54 0.52 0.50 0.47 0.47 0.48 0.49 0.48 0.46 0.44 0.42 0.40 0.38 0.37 0.37 0.38 0.38 0.38 0.37 0.37 0.37 0.37 0.37 0.36 0.36 0.37 0.38 0.38 0.39 0.40 0.42 0.43 0.43 0.44 0.44 0.44 0.44 0.42 0.44 0.48 0.53 0.50 0.48 0.45 0.47 0.54 0.59 0.63 0.74 0.82 0.83 0.82 0.77 0.81 0.89 0.92 0.96 0.98 1.05 1.06 1.01 0.98 1.06 1.13 1.18 1.20 1.21 1.20 1.25 1.32 1.33 1.34 1.35 1.35 1.35 1.32 1.23 1.14 1.09 1.03 0.93
0.63 0.62 0.59 0.57 0.55 0.52 0.48 0.46 0.47 0.48 0.47 0.46 0.44 0.43 0.41 0.40 0.38 0.38 0.38 0.38 0.37 0.37 0.35 0.34 0.33 0.32 0.32 0.34 0.37 0.39 0.39 0.37 0.36 0.37 0.38 0.39 0.41 0.42 0.42 0.43 0.44 0.44 0.43 0.44 0.47 0.51 0.50 0.45 0.44 0.50 0.57 0.60 0.66 0.72 0.82 0.82 0.83 0.80 0.82 0.83 0.85 0.90 0.96 1.03 1.03 0.98 0.95 1.02 1.08 1.11 1.15 1.16 1.18 1.25 1.29 1.30 1.32 1.32 1.34 1.36 1.30 1.20 1.12 1.07 1.00
0.63 0.61 0.59 0.58 0.55 0.51 0.49 0.49 0.48 0.47 0.47 0.46 0.44 0.41 0.39 0.39 0.38 0.38 0.37 0.36 0.35 0.34 0.33 0.32 0.31 0.30 0.29 0.28 0.30 0.36 0.37 0.36 0.36 0.37 0.37 0.38 0.39 0.40 0.41 0.42 0.43 0.44 0.43 0.42 0.43 0.45 0.46 0.45 0.44 0.41 0.49 0.53 0.58 0.65 0.75 0.84 0.82 0.79 0.76 0.78 0.81 0.85 0.90 0.92 0.94 0.93 0.95 0.97 1.00 1.03 1.05 1.09 1.12 1.20 1.25 1.29 1.32 1.32 1.33 1.35 1.35 1.28 1.21 1.15 1.05
0.63 0.61 0.60 0.57 0.55 0.52 0.51 0.50 0.48 0.47 0.46 0.45 0.43 0.41 0.40 0.39 0.38 0.36 0.35 0.34 0.33 0.33 0.32 0.31 0.30 0.29 0.29 0.29 0.29 0.30 0.32 0.36 0.36 0.36 0.37 0.37 0.38 0.38 0.40 0.41 0.42 0.42 0.42 0.42 0.42 0.41 0.41 0.42 0.43 0.43 0.43 0.50 0.56 0.56 0.69 0.80 0.83 0.84 0.78 0.74 0.66 0.74 0.84 0.85 0.85 0.90 0.94 0.98 1.03 1.02 0.98 0.99 1.05 1.15 1.23 1.28 1.31 1.32 1.33 1.35 1.36 1.33 1.28 1.25 1.18
0.65 0.63 0.60 0.56 0.55 0.53 0.50 0.49 0.49 0.48 0.46 0.44 0.42 0.41 0.40 0.39 0.37 0.35 0.34 0.33 0.32 0.31 0.31 0.31 0.30 0.29 0.30 0.31 0.31 0.31 0.31 0.32 0.35 0.37 0.38 0.37 0.38 0.37 0.38 0.40 0.41 0.41 0.41 0.42 0.42 0.41 0.39 0.39 0.39 0.39 0.42 0.43 0.49 0.58 0.66 0.73 0.73 0.76 0.84 0.83 0.72 0.69 0.73 0.80 0.85 0.83 0.87 0.93 0.97 1.00 0.98 0.96 0.99 1.09 1.17 1.24 1.28 1.32 1.34 1.36 1.38 1.37 1.33 1.30 1.27
0.66 0.64 0.61 0.58 0.54 0.51 0.50 0.49 0.48 0.48 0.45 0.43 0.42 0.40 0.39 0.37 0.37 0.35 0.34 0.33 0.32 0.31 0.30 0.30 0.29 0.29 0.30 0.31 0.32 0.32 0.33 0.34 0.34 0.35 0.37 0.38 0.37 0.35 0.36 0.38 0.38 0.39 0.40 0.41 0.41 0.41 0.40 0.39 0.37 0.40 0.38 0.39 0.42 0.46 0.51 0.58 0.64 0.67 0.77 0.84 0.81 0.84 0.79 0.73 0.80 0.87 0.87 0.86 0.90 0.95 0.95 0.96 0.93 1.00 1.11 1.20 1.28 1.32 1.34 1.36 1.37 1.37 1.36 1.33 1.29
0.65 0.61 0.58 0.55 0.53 0.51 0.49 0.49 0.49 0.47 0.45 0.43 0.42 0.40 0.39 0.38 0.36 0.35 0.34 0.33 0.32 0.31 0.30 0.28 0.28 0.29 0.30 0.32 0.33 0.34 0.34 0.34 0.35 0.35 0.35 0.35 0.36 0.38 0.37 0.38 0.37 0.38 0.38 0.38 0.39 0.40 0.40 0.38 0.38 0.37 0.35 0.35 0.37 0.42 0.45 0.52 0.63 0.72 0.74 0.77 0.75 0.78 0.82 0.77 0.75 0.80 0.85 0.85 0.84 0.88 0.97 1.02 0.99 0.99 1.06 1.10 1.21 1.29 1.29 1.34 1.32 1.34 1.33 1.32 1.29
0.62 0.59 0.56 0.53 0.52 0.51 0.51 0.49 0.47 0.45 0.44 0.43 0.42 0.40 0.38 0.38 0.37 0.35 0.34 0.33 0.32 0.31 0.29 0.28 0.27 0.29 0.31 0.33 0.34 0.34 0.35 0.35 0.35 0.35 0.35 0.35 0.35 0.36 0.37 0.39 0.40 0.39 0.37 0.36 0.37 0.39 0.39 0.39 0.40 0.40 0.37 0.35 0.36 0.41 0.43 0.48 0.56 0.63 0.69 0.76 0.76 0.76 0.74 0.71 0.64 0.71 0.82 0.82 0.84 0.84 0.88 1.01 1.04 0.97 1.02 1.08 1.13 1.20 1.26 1.26 1.29 1.29 1.29 1.29 1.30
0.60 0.58 0.55 0.54 0.53 0.52 0.51 0.49 0.47 0.45 0.44 0.43 0.41 0.39 0.37 0.36 0.36 0.35 0.34 0.31 0.30 0.28 0.28 0.28 0.29 0.30 0.31 0.32 0.33 0.35 0.35 0.35 0.36 0.36 0.36 0.36 0.36 0.37 0.37 0.37 0.38 0.39 0.41 0.39 0.37 0.37 0.38 0.38 0.38 0.39 0.40 0.38 0.38 0.40 0.40 0.44 0.47 0.54 0.63 0.71 0.75 0.74 0.73 0.72 0.71 0.66 0.76 0.89 0.87 0.84 0.84 0.98 1.05 1.03 1.00 1.04 1.09 1.11 1.14 1.18 1.21 1.27 1.32 1.32 1.30
0.59 0.56 0.55 0.55 0.53 0.51 0.50 0.48 0.47 0.46 0.43 0.40 0.37 0.35 0.34 0.33 0.32 0.31 0.30 0.28 0.27 0.27 0.28 0.29 0.29 0.30 0.31 0.31 0.32 0.34 0.35 0.36 0.37 0.37 0.37 0.37 0.37 0.38 0.38 0.38 0.38 0.38 0.38 0.39 0.41 0.40 0.41 0.40 0.38 0.38 0.40 0.41 0.41 0.41 0.45 0.45 0.49 0.48 0.56 0.63 0.71 0.76 0.77 0.75 0.76 0.78 0.79 0.85 0.86 0.84 0.81 0.89 0.97 1.01 1.03 1.08 1.09 1.07 1.07 1.07 1.09 1.10 1.19 1.29 1.29
0.55 0.54 0.54 0.53 0.52 0.51 0.50 0.48 0.45 0.42 0.39 0.37 0.35 0.33 0.31 0.29 0.28 0.27 0.27 0.28 0.28 0.28 0.29 0.29 0.29 0.30 0.31 0.31 0.32 0.32 0.35 0.36 0.37 0.37 0.37 0.37 0.37 0.37 0.37 0.37 0.38 0.38 0.39 0.39 0.40 0.40 0.41 0.40 0.40 0.38 0.41 0.47 0.43 0.46 0.51 0.55 0.49 0.44 0.46 0.51 0.62 0.69 0.73 0.75 0.83 0.85 0.89 0.93 0.82 0.81 0.77 0.82 0.91 0.94 0.95 1.06 1.11 1.07 1.04 1.05 1.04 1.09 1.18 1.20 1.24
0.55 0.53 0.53 0.52 0.52 0.51 0.48 0.45 0.41 0.39 0.38 0.35 0.32 0.29 0.27 0.26 0.26 0.27 0.28 0.28 0.28 0.29 0.29 0.30 0.30 0.30 0.31 0.32 0.32 0.32 0.34 0.35 0.37 0.38 0.38 0.38 0.38 0.37 0.37 0.36 0.37 0.38 0.39 0.40 0.41 0.41 0.41 0.42 0.41 0.41 0.43 0.46 0.48 0.51 0.52 0.54 0.54 0.51 0.50 0.48 0.52 0.59 0.68 0.76 0.79 0.83 0.87 0.95 0.94 0.84 0.66 0.78 0.90 0.86 0.88 0.97 1.02 1.03 1.03 1.03 1.04 1.04 1.09 1.14 1.18
0.56 0.55 0.54 0.52 0.50 0.48 0.46 0.43 0.39 0.36 0.34 0.31 0.28 0.26 0.25 0.25 0.26 0.27 0.28 0.28 0.28 0.28 0.29 0.30 0.30 0.31 0.32 0.33 0.32 0.32 0.33 0.34 0.35 0.37 0.37 0.38 0.37 0.36 0.36 0.36 0.37 0.38 0.38 0.41 0.43 0.44 0.45 0.44 0.44 0.44 0.45 0.47 0.49 0.51 0.53 0.54 0.56 0.56 0.53 0.50 0.49 0.50 0.54 0.59 0.62 0.70 0.76 0.90 0.95 0.86 0.76 0.77 0.85 0.79 0.81 0.91 0.95 0.95 0.97 0.99 1.01 1.04 1.06 1.09 1.10
0.55 0.53 0.52 0.50 0.48 0.45 0.43 0.39 0.36 0.33 0.30 0.27 0.26 0.25 0.25 0.25 0.27 0.27 0.28 0.28 0.28 0.28 0.28 0.29 0.30 0.31 0.32 0.33 0.33 0.32 0.32 0.33 0.35 0.36 0.37 0.38 0.36 0.36 0.36 0.36 0.37 0.37 0.37 0.41 0.42 0.43 0.44 0.45 0.45 0.45 0.45 0.45 0.46 0.47 0.49 0.51 0.52 0.52 0.51 0.46 0.41 0.44 0.44 0.43 0.51 0.59 0.65 0.79 0.90 0.92 0.86 0.81 0.85 0.86 0.82 0.80 0.84 0.87 0.89 0.94 1.00 1.02 1.05 1.06 1.04
0.53 0.51 0.50 0.47 0.44 0.43 0.40 0.36 0.34 0.30 0.27 0.26 0.26 0.26 0.25 0.26 0.27 0.28 0.28 0.28 0.27 0.27 0.28 0.29 0.30 0.31 0.32 0.32 0.33 0.33 0.33 0.33 0.35 0.36 0.37 0.38 0.36 0.36 0.35 0.35 0.34 0.35 0.36 0.40 0.42 0.42 0.44 0.44 0.45 0.46 0.46 0.46 0.46 0.46 0.46 0.47 0.49 0.51 0.48 0.41 0.43 0.47 0.42 0.42 0.42 0.49 0.60 0.70 0.80 0.95 0.88 0.83 0.89 0.92 0.85 0.82 0.82 0.82 0.85 0.91 0.96 0.98 1.00 1.03 1.02
0.49 0.50 0.49 0.45 0.43 0.42 0.39 0.34 0.32 0.29 0.27 0.27 0.27 0.26 0.26 0.27 0.28 0.29 0.29 0.28 0.27 0.27 0.27 0.28 0.30 0.30 0.31 0.32 0.32 0.33 0.33 0.34 0.34 0.35 0.36 0.37 0.36 0.36 0.35 0.34 0.32 0.32 0.34 0.39 0.39 0.39 0.41 0.42 0.42 0.44 0.44 0.46 0.46 0.46 0.46 0.47 0.48 0.50 0.50 0.47 0.48 0.47 0.43 0.43 0.43 0.45 0.47 0.55 0.70 0.89 0.82 0.83 0.86 0.86 0.85 0.77 0.71 0.77 0.82 0.86 0.92 0.94 0.95 0.97 1.00
Wind_Speed
13 13 13 14 14 15 15 15 15 15 15 14 14 14 14 15 16 18 18 18 18 19 20 21 23 23 23 22 21 19 19 18 17 17 18 18 18 18 18 18 18 18 18 18 18 17 17 16 16 15 15 14 14 13 13 12 12 11 10 10 9 8 8 7 7 6 6 6 6 7 7 8 9 10 11 12 12 13 14 14 14 14 15 14 15
13 14 14 14 15 15 15 15 15 15 15 15 15 15 15 15 15 17 18 18 18 18 19 21 22 24 24 23 22 21 20 19 18 18 18 18 19 19 19 19 19 19 18 18 18 18 18 17 16 16 16 15 15 15 14 14 13 12 12 11 10 9 9 8 8 7 7 6 6 7 7 7 8 9 10 11 11 12 13 14 14 14 14 14 14
14 14 15 15 15 16 16 16 15 15 16 16 16 16 16 16 16 17 18 18 18 19 19 20 22 23 24 24 23 22 21 20 19 18 18 18 18 18 19 19 19 19 19 19 18 18 18 18 17 17 16 16 16 16 15 15 14 13 13 12 11 10 10 9 8 8 7 7 7 7 7 7 7 8 9 10 11 11 12 13 14 14 13 13 13
15 15 16 16 16 16 16 16 16 16 17 17 17 17 17 17 17 17 18 18 19 19 20 20 22 23 24 24 24 23 23 22 20 19 19 18 18 18 18 19 19 19 19 19 19 19 18 18 18 17 17 16 16 16 16 15 15 14 14 13 13 12 11 10 10 9 8 8 7 7 7 7 7 8 9 9 10 11 11 12 13 13 13 13 12
16 16 17 17 16 16 16 16 16 17 17 17 17 18 18 18 18 18 18 19 19 19 19 20 21 23 24 25 25 25 24 23 21 20 19 19 18 18 18 18 19 19 19 19 19 19 19 19 18 18 17 17 17 16 16 15 15 15 15 15 14 13 12 12 11 10 9 9 9 8 8 7 7 8 8 9 10 10 11 11 12 13 13 12 12
17 17 17 17 17 16 15 15 16 17 16 16 17 18 19 19 19 19 19 19 19 19 19 19 21 22 24 25 25 25 25 23 23 22 21 20 19 19 18 18 18 19 19 19 19 19 19 19 19 18 18 18 17 17 16 16 16 16 16 16 15 14 14 13 12 11 11 10 10 9 8 8 8 8 8 9 9 10 10 11 11 12 13 12 12
17 18 18 17 16 15 15 16 16 16 16 16 16 17 18 20 20 19 20 20 20 19 19 20 20 22 23 24 25 25 25 24 23 22 22 21 20 20 19 19 19 19 19 19 19 19 19 19 19 19 18 18 18 17 17 17 17 16 16 16 16 15 15 14 14 13 12 11 11 10 10 9 9 8 8 9 9 9 10 10 11 11 12 12 12
17 17 17 17 16 16 16 16 15 15 15 15 16 16 16 18 20 20 20 21 21 20 20 19 19 21 22 24 25 25 25 25 24 23 23 22 22 21 21 20 20 20 19 19 19 19 19 19 19 19 18 18 18 18 17 17 17 17 17 17 17 16 16 15 15 14 13 13 12 11 11 10 10 9 9 9 9 9 10 10 10 11 11 12 12
17 17 17 17 16 16 17 16 15 15 15 15 16 16 15 17 19 20 21 21 21 21 20 19 19 20 21 23 25 25 26 25 25 24 24 23 23 23 22 22 22 21 20 20 20 20 20 20 20 20 19 19 18 18 18 18 18 18 18 18 17 17 17 16 16 15 14 14 13 13 12 12 11 10 10 10 10 10 10 10 10 10 11 11 12
17 18 18 17 17 17 16 15 15 15 15 15 16 15 15 16 17 18 20 21 21 21 20 20 19 20 21 22 24 25 26 26 26 25 24 24 24 24 24 23 23 23 22 21 21 21 21 21 21 21 20 20 20 19 19 19 19 19 19 19 18 18 18 17 17 16 15 15 15 14 13 13 12 12 11 11 10 10 10 10 10 10 10 11 11
17 17 17 17 17 17 16 15 15 16 15 15 16 15 15 16 16 16 18 20 21 21 20 20 20 20 20 22 23 24 25 25 25 25 25 24 24 24 24 24 24 24 24 23 23 22 22 22 22 22 22 22 22 21 21 20 20 20 20 20 20 19 19 18 18 18 17 16 16 15 15 14 14 13 12 12 11 11 11 10 10 10 10 11 11
17 17 17 17 17 17 16 15 16 16 15 15 15 16 15 16 16 16 16 17 19 20 20 20 21 20 20 21 22 23 24 24 25 25 25 25 25 25 25 25 25 25 25 25 24 24 24 23 23 23 23 23 23 23 23 22 22 21 21 21 21 20 20 20 20 19 19 18 17 17 16 16 15 14 14 13 12 12 11 11 11 11 11 11 11
17 17 17 17 17 17 16 16 16 15 14 14 14 15 16 16 17 17 16 16 18 19 20 20 20 20 20 20 21 22 23 23 24 25 25 25 25 25 25 25 25 26 26 26 26 26 25 25 25 25 24 24 24 24 24 24 23 23 22 22 22 22 21 21 21 21 20 20 19 18 18 17 16 16 15 14 14 13 13 12 12 11 11 11 11
16 16 16 16 17 17 17 17 16 15 14 14 13 14 15 16 16 17 17 17 17 18 19 20 20 19 19 19 20 21 22 23 23 24 25 26 26 26 26 26 26 26 27 27 27 27 27 26 26 26 26 26 26 25 25 25 25 24 24 23 23 22 22 22 22 22 21 21 20 19 19 18 18 17 17 16 15 14 14 13 13 12 12 12 12
15 15 15 15 15 16 16 17 16 16 15 15 14 13 14 14 15 15 16 16 16 16 17 19 20 19 19 19 19 20 21 21 22 24 25 25 26 27 27 27 27 27 27 27 27 27 27 27 27 27 27 27 27 26 26 26 26 26 25 25 24 23 23 23 23 23 23 22 22 21 20 20 19 18 18 17 16 16 15 15 14 14 13 13 13
14 14 14 14 14 14 15 16 16 16 16 16 15 14 14 14 14 14 15 15 15 16 16 17 19 19 19 19 20 20 20 20 21 23 24 25 26 26 27 27 27 27 27 27 27 27 27 27 27 27 27 27 27 27 27 27 26 26 26 26 25 25 24 24 24 24 24 24 23 23 21 21 20 20 19 19 18 17 17 16 15 15 15 14 14
12 13 14 14 14 14 14 14 15 15 16 16 16 16 15 15 15 14 15 15 15 16 16 16 17 17 17 19 20 20 20 20 20 21 22 23 25 26 26 27 27 26 26 27 27 27 28 28 28 28 28 28 28 28 28 28 27 27 27 27 26 26 25 25 24 25 25 25 25 24 23 22 22 21 20 20 19 19 18 17 17 16 16 15 15
10 11 12 13 13 14 14 15 15 15 15 16 16 16 16 16 16 16 16 16 16 16 16 17 17 17 17 18 19 20 20 20 21 21 22 22 22 24 25 26 27 27 27 27 27 27 27 28 28 28 28 28 28 28 28 28 28 28 28 28 28 27 26 26 25 25 26 26 26 26 25 24 23 23 22 21 21 20 20 19 18 18 17 16 16
8 9 9 10 11 12 13 14 15 15 16 16 16 16 17 17 17 17 17 17 17 17 17 17 17 17 18 18 19 20 21 21 21 21 22 22 22 23 24 25 26 27 27 27 28 28 28 28 28 29 29 28 28 28 28 28 29 29 29 29 29 28 28 27 27 26 26 27 27 27 27 26 25 24 24 23 23 22 21 20 20 19 18 18 17
9 9 9 9 9 10 10 11 13 14 14 15 16 16 17 18 18 18 18 18 18 18 18 18 18 18 19 19 20 20 21 22 22 22 22 23 23 24 24 25 25 26 26 27 27 28 28 28 28 29 29 29 29 29 28 29 29 29 29 30 30 29 29 28 28 28 27 27 28 29 29 28 27 26 25 25 24 24 23 22 21 21 20 19 18
10 10 10 9 9 9 9 10 11 11 12 13 14 15 15 16 17 18 19 19 19 19 20 20 20 20 20 21 21 21 22 22 23 24 24 24 24 25 25 26 27 27 27 27 27 28 28 29 29 29 29 30 30 29 29 29 29 29 29 30 30 30 29 29 29 29 28 28 28 28 29 29 29 28 27 26 26 25 24 24 23 22 21 21 20
11 11 11 10 10 10 10 10 11 11 11 12 12 13 14 15 16 17 18 19 20 20 20 21 21 21 22 22 22 23 23 23 24 24 25 25 25 26 26 27 28 29 29 29 29 29 29 29 29 30 30 31 31 31 30 30 30 29 29 30 30 30 29 29 29 29 29 28 28 28 29 30 30 29 28 27 27 26 26 25 25 24 23 22 21
12 12 12 12 11 11 11 11 11 11 12 12 12 13 13 14 15 16 17 18 19 20 20 21 22 22 23 23 23 24 24 24 25 25 26 26 26 27 27 27 28 29 30 30 31 31 31 31 30 30 30 31 31 32 32 31 31 30 30 30 30 30 30 29 30 30 30 29 29 29 29 30 30 30 29 28 28 27 27 27 26 25 24 23 23
13 13 13 13 13 12 12 12 12 12 13 13 13 14 14 14 15 15 16 17 18 18 19 20 21 22 23 23 24 24 25 25 26 26 27 27 28 28 28 28 29 29 30 30 31 31 31 32 32 32 32 32 32 32 33 33 32 32 32 31 31 31 31 30 30 30 30 30 29 29 29 29 30 31 30 29 28 28 27 27 27 26 25 25 24
14 14 14 14 14 14 13 13 13 14 14 14 14 15 15 15 15 15 16 16 17 18 18 19 20 21 22 23 24 25 25 26 26 27 28 28 29 29 29 29 29 29 30 31 31 31 31 31 31 32 33 33 33 33 33 33 33 33 33 33 33 33 32 32 31 31 30 30 30 30 30 30 30 30 31 30 29 28 27 28 28 27 27 26 25
14 14 14 14 14 14 14 14 15 15 15 15 15 16 16 16 16 16 17 17 18 18 19 19 20 21 22 22 23 24 25 26 26 27 28 29 29 29 29 30 30 30 30 31 31 32 31 31 31 31 32 33 34 34 34 34 34 35 35 35 34 34 34 34 33 32 32 31 31 30 30 30 30 30 31 31 30 29 28 28 28 28 27 27 26
15 15 15 15 15 15 15 15 15 16 16 16 16 16 17 17 17 18 18 18 19 19 20 20 21 22 22 22 23 24 24 25 26 27 27 28 29 30 30 30 31 31 30 31 31 32 32 32 31 31 31 32 33 34 34 34 35 36 36 35 35 35 35 35 34 34 33 33 32 32 31 31 31 31 31 31 31 31 30 29 29 29 28 27 27
16 16 16 16 16 16 16 16 16 16 17 17 17 17 18 18 18 19 19 19 20 20 21 21 22 22 23 23 24 24 25 25 26 27 27 28 29 29 30 30 31 31 31 31 32 31 31 31 31 31 31 32 33 34 34 34 35 36 36 36 35 35 35 36 36 35 35 34 33 33 32 32 32 31 31 31 32 32 32 31 30 30 30 29 28
17 17 17 17 17 17 17 17 17 17 18 18 18 18 18 19 19 20 20 21 21 21 22 22 23 23 24 24 25 25 25 26 26 27 27 28 28 29 30 30 31 31 31 31 31 31 31 32 32 31 31 32 33 34 35 35 35 36 36 36 36 36 36 37 37 37 36 35 34 33 32 32 32 32 31 31 31 31 32 32 32 31 31 30 29
18 18 18 18 18 18 18 19 19 19 19 19 19 19 20 20 20 21 21 21 22 22 23 23 24 24 25 25 25 26 26 27 27 28 28 29 29 30 30 31 31 32 32 32 32 31 32 33 33 32 32 32 33 33 34 35 35 35 36 36 36 36 36 37 37 37 36 36 35 34 33 33 32 32 31 30 30 30 31 32 33 32 32 31 30
19 19 19 19 19 20 20 20 20 20 20 20 20 21 21 22 22 22 22 23 23 23 24 24 25 25 26 26 26 27 27 27 28 28 29 30 30 30 31 31 32 32 33 33 33 32 31 33 33 33 33 33 33 34 34 34 35 35 35 36 36 36 36 36 36 36 36 36 35 35 34 34 33 32 31 31 30 30 30 31 32 33 32 31 31
21 20 20 20 21 21 21 21 21 21 21 21 22 22 22 23 23 24 24 24 24 25 25 25 26 26 27 27 28 28 28 28 29 29 29 30 31 31 32 32 33 33 33 34 34 33 32 33 34 34 34 34 34 34 34 34 35 35 36 36 36 36 36 36 36 36 36 36 36 35 35 34 34 33 32 31 30 30 30 30 31 32 32 32 31
22 22 22 22 21 22 22 22 22 22 22 23 23 23 23 24 24 25 25 25 26 26 26 27 27 27 28 28 29 29 30 30 30 30 30 31 31 32 33 33 34 34 34 35 35 35 34 33 34 34 35 35 35 35 35 35 35 35 36 37 37 37 37 37 36 36 36 37 37 36 36 35 35 34 33 32 32 31 31 30 30 32 32 32 32
23 23 23 22 22 22 23 23 23 23 23 24 24 24 24 25 25 25 26 26 27 27 27 28 28 29 29 29 30 30 31 32 32 32 32 32 32 33 33 34 34 35 35 36 36 36 35 35 34 34 35 36 36 36 36 36 36 36 36 37 37 37 38 38 37 37 37 38 38 38 37 36 36 35 34 33 33 32 32 31 31 31 32 32 32
23 23 23 23 23 23 23 23 24 24 24 25 25 25 25 26 26 26 27 27 27 28 28 29 30 30 31 31 32 32 32 33 33 33 34 34 34 34 34 34 35 35 36 36 37 37 36 36 35 35 34 35 37 37 37 37 37 37 37 37 37 37 37 38 38 38 38 38 39 39 38 37 37 37 35 34 33 33 33 32 31 31 31 32 32
24 24 24 24 24 24 24 25 25 25 25 26 26 26 26 27 27 28 28 28 28 29 29 30 31 32 32 33 33 33 34 34 34 35 35 35 35 35 35 35 36 36 36 37 38 38 38 37 36 36 35 35 36 36 38 39 38 38 38 37 37 37 37 38 38 38 39 39 39 40 39 39 38 38 37 35 34 34 33 32 31 31 31 31 31
25 25 25 25 25 25 25 26 26 26 26 27 27 27 27 28 28 28 29 29 30 30 31 31 32 33 34 35 35 35 35 36 36 36 37 37 37 38 38 37 37 37 37 38 38 39 39 38 38 37 37 37 36 36 36 38 39 39 39 38 38 38 37 37 38 38 38 39 40 40 40 40 39 39 38 37 36 35 34 33 32 31 31 31 31
26 26 25 25 25 25 26 26 26 27 27 27 27 28 28 29 29 29 29 30 30 31 32 32 33 34 35 36 36 36 37 37 38 38 38 39 39 39 40 40 39 39 39 39 39 40 40 40 39 39 39 38 38 37 36 37 37 39 39 39 39 38 38 38 37 38 38 38 39 40 40 40 40 40 39 38 37 35 34 33 33 32 31 31 30
26 26 26 26 26 26 26 26 27 27 27 28 28 29 29 29 29 30 30 31 32 32 33 34 34 35 36 36 36 37 38 38 39 39 39 40 40 41 41 41 41 41 41 41 41 41 41 41 41 40 40 40 39 39 38 37 37 37 38 39 39 39 38 38 38 38 38 38 38 39 39 39 39 40 41 40 38 37 35 34 33 33 32 32 31
27 27 27 27 27 27 27 27 27 27 28 28 28 29 29 30 30 31 32 32 33 34 35 35 35 36 36 37 37 37 38 39 40 40 41 41 41 42 42 43 43 43 43 43 43 43 42 42 42 41 41 41 40 40 40 39 38 37 37 38 39 39 39 39 39 38 38 38 38 38 38 38 39 40 41 41 40 39 37 36 35 34 33 33 32
28 28 28 28 28 28 28 28 28 28 28 28 29 29 30 31 31 32 33 34 34 35 36 36 36 37 37 37 38 39 39 40 41 42 42 42 43 43 43 44 44 45 45 45 45 44 44 44 43 43 42 42 41 41 41 40 40 39 38 38 38 38 39 39 40 39 38 37 37 37 37 38 38 39 40 41 41 40 39 38 37 36 34 34 34
29 29 29 29 29 29 29 29 30 30 29 29 30 30 31 32 32 33 34 35 35 36 37 37 37 37 38 38 39 40 41 41 42 43 43 44 44 45 45 45 45 45 46 46 46 46 46 45 45 44 43 43 42 42 42 42 41 41 40 39 39 38 38 38 39 39 38 38 37 37 37 37 37 38 40 41 41 41 40 39 38 37 36 35 35
30 30 30 30 30 30 30 30 31 31 31 31 31 32 33 33 34 35 36 36 37 37 37 38 38 38 38 39 40 41 41 42 43 43 44 45 45 45 46 46 46 47 47 47 47 47 47 47 46 45 45 45 44 43 43 42 42 42 42 41 40 39 38 37 38 38 38 38 38 38 37 37 37 38 39 40 41 42 41 41 40 39 38 37 36
31 31 31 31 31 31 31 31 31 31 32 32 33 33 34 35 36 36 37 38 38 38 39 39 39 40 40 40 41 42 42 43 44 44 45 45 46 46 47 47 47 48 48 48 48 48 48 48 48 47 47 46 45 44 44 43 43 43 43 42 41 40 39 38 38 38 38 38 39 38 38 37 37 38 39 40 41 41 42 42 42 41 40 39 37
31 31 31 31 31 31 31 31 31 32 33 33 34 34 35 36 37 38 38 39 39 40 40 41 41 42 42 42 43 43 43 44 44 44 45 46 47 47 48 48 48 48 49 49 49 49 49 49 49 49 48 47 46 45 44 44 43 43 43 43 42 41 40 39 38 38 37 38 39 39 39 38 38 38 38 38 39 40 41 42 42 41 41 41 39
30 30 30 31 31 31 31 31 32 32 33 34 34 35 36 37 38 39 39 40 41 41 42 42 43 43 44 44 45 45 44 44 44 45 45 46 47 47 48 48 48 48 49 49 50 50 50 50 50 50 49 48 48 47 45 45 44 44 44 43 43 42 41 40 39 38 37 37 38 39 39 38 38 38 38 38 38 39 40 41 41 41 41 42 40
30 31 31 31 31 31 31 31 32 33 34 34 35 36 37 38 39 39 40 41 42 43 43 44 44 45 46 46 46 46 46 45 45 46 46 47 47 48 48 48 49 49 49 49 49 50 50 50 51 51 50 50 49 49 47 47 46 46 45 45 44 44 43 42 41 39 38 37 38 38 38 38 38 38 38 38 38 38 39 39 40 40 41 41 41
30 30 31 31 31 32 32 32 33 33 33 34 35 36 37 38 39 40 41 42 43 44 44 45 46 46 47 47 47 47 47 47 47 47 48 48 48 48 49 49 49 50 50 50 50 51 51 51 51 52 51 51 51 50 49 48 48 47 46 46 46 45 45 44 43 42 40 38 38 38 37 37 37 38 38 38 37 38 38 38 39 39 40 40 40
30 31 31 31 32 32 32 32 32 33 33 34 35 36 38 39 40 40 41 43 44 45 46 46 47 47 48 48 48 48 48 48 48 49 49 48 49 49 49 50 50 50 50 50 50 51 52 52 53 53 53 52 52 52 51 51 50 49 48 48 47 46 45 45 44 43 42 40 38 37 37 36 36 36 36 37 37 37 38 38 38 38 39 39 39
31 31 31 31 32 32 32 32 32 33 33 34 36 37 38 40 40 41 42 44 45 46 47 47 48 48 48 49 49 49 49 49 49 49 49 49 49 49 50 50 50 51 50 49 49 50 51 52 52 53 53 52 52 52 52 52 51 50 49 49 48 46 46 46 44 43 42 41 40 38 37 36 35 34 34 35 36 37 37 37 37 37 38 38 38
31 31 31 31 32 32 31 31 32 33 34 35 36 38 39 40 41 42 43 45 46 47 48 48 48 48 48 49 50 50 50 50 50 50 49 49 50 50 50 51 51 51 50 49 49 50 51 51 52 52 52 52 51 51 50 51 51 50 50 50 49 47 47 46 45 44 43 42 41 40 38 36 35 34 34 33 34 35 36 36 36 36 37 37 38
Wind_Direction
251 250 248 247 246 245 243 240 237 236 235 234 233 231 229 227 225 224 224 223 222 221 222 222 221 221 220 220 219 220 222 223 223 222 223 224 226 227 227 228 230 232 234 235 237 237 239 241 243 245 246 247 248 251 255 258 262 263 265 269 273 278 287 292 293 301 310 318 328 336 344 350 355 358 2 6 8 9 9 9 10 12 14 16 19
251 251 249 249 249 248 247 244 239 236 235 235 233 231 229 227 225 224 226 226 224 222 223 223 222 221 221 220 220 221 223 226 226 226 226 227 227 228 228 229 231 233 234 236 238 239 241 243 244 246 248 249 249 251 254 257 260 261 263 265 268 272 280 285 286 291 299 306 316 325 334 341 346 351 355 359 4 6 7 6 7 9 11 13 16
251 251 251 252 252 251 249 247 243 239 238 236 234 232 229 229 226 224 226 228 227 226 226 225 223 221 221 222 221 222 224 226 228 228 228 228 228 228 229 230 232 234 235 237 238 240 242 244 245 246 248 250 250 252 253 256 258 258 260 262 264 267 274 280 280 282 289 295 303 314 323 329 336 342 347 352 357 1 3 3 3 5 8 10 12
251 252 253 253 253 252 250 249 247 244 241 237 235 233 230 230 229 226 227 229 231 231 229 228 225 223 222 223 223 222 224 225 227 227 228 229 229 229 230 231 233 235 236 238 239 240 242 243 245 247 248 250 251 252 254 256 257 257 258 260 262 264 269 274 274 276 281 286 292 302 311 317 324 332 338 344 350 355 359 0 0 1 4 6 8
251 252 254 254 253 251 250 249 248 246 243 237 236 235 231 230 230 228 229 229 231 232 231 230 228 225 223 223 224 223 224 225 226 227 228 229 229 230 231 232 234 235 237 238 240 241 242 243 245 247 249 250 251 252 254 256 257 256 256 257 259 261 265 270 270 270 274 278 284 292 299 305 312 320 328 335 342 348 352 356 357 358 0 3 4
252 253 253 253 252 251 249 249 248 248 247 242 239 237 233 231 231 231 231 230 231 232 232 232 231 229 226 224 224 224 224 225 228 230 230 230 230 231 232 233 234 236 238 239 241 242 243 244 245 247 248 250 251 252 253 254 256 256 256 256 257 259 262 266 267 266 268 272 277 284 289 295 300 308 317 325 332 339 345 350 353 354 356 359 0
253 253 253 252 252 253 250 249 249 249 250 247 244 240 234 231 230 232 234 232 231 232 233 233 234 232 228 225 224 224 225 226 229 231 232 232 231 232 233 234 235 237 238 239 241 243 244 245 246 246 248 249 251 252 253 253 254 255 255 256 257 258 260 264 265 263 264 268 272 277 281 286 291 297 305 314 321 329 335 341 347 350 352 354 356
252 252 253 253 254 254 252 250 250 250 251 249 246 243 236 232 231 232 234 234 232 232 232 233 235 234 229 226 225 225 227 228 230 231 232 233 233 233 234 236 237 238 239 240 242 243 245 246 246 247 247 248 250 251 252 253 254 255 256 258 259 259 259 261 264 262 261 264 268 271 275 279 283 289 296 303 310 318 325 331 338 343 347 349 352
252 252 252 254 254 253 253 252 250 250 250 248 246 242 238 234 234 234 234 234 234 233 233 233 233 234 231 228 227 227 229 230 231 232 233 234 235 235 236 237 238 239 241 241 243 244 246 247 247 248 248 248 249 251 252 253 255 256 257 260 260 260 259 259 262 261 259 262 265 267 270 273 278 283 288 295 301 308 314 321 328 334 339 343 346
252 252 251 252 252 253 253 252 249 250 249 247 245 242 238 236 237 238 234 232 233 232 233 234 234 235 234 231 229 229 230 231 233 233 234 236 237 237 237 238 239 240 241 242 244 245 246 248 248 249 249 249 250 251 253 255 256 257 258 260 260 261 259 258 260 259 258 260 262 263 266 270 274 278 282 288 293 298 305 311 318 324 330 335 339
253 253 252 251 251 252 252 251 249 249 248 246 245 243 241 239 240 241 235 232 233 232 234 236 235 236 236 233 231 230 230 232 233 234 235 237 238 239 239 240 240 241 242 243 245 246 247 248 249 250 250 250 251 252 254 256 257 259 259 260 260 260 259 259 259 258 256 258 261 261 263 267 270 274 278 281 286 290 296 302 309 315 321 326 331
255 254 253 252 251 251 251 250 250 248 246 246 246 244 243 242 241 241 239 235 234 234 236 236 235 237 237 235 232 231 231 233 234 235 236 238 239 240 240 241 242 242 243 243 245 247 247 248 248 250 251 252 252 253 254 256 258 259 260 261 261 260 259 259 259 257 255 256 259 260 261 264 267 270 274 276 280 284 289 294 300 306 312 317 322
256 255 253 252 251 251 251 249 249 249 248 248 247 244 244 244 242 240 239 238 236 234 236 237 236 237 237 236 235 233 234 235 236 236 237 239 240 241 241 241 242 244 244 244 245 246 248 248 248 249 251 252 252 253 254 256 258 259 260 261 262 261 260 259 258 257 254 254 257 259 260 262 264 267 270 272 275 279 283 288 293 298 303 309 314
254 254 252 251 250 250 250 250 249 250 250 250 248 246 245 245 244 242 240 240 239 237 237 237 237 237 236 237 237 236 236 237 238 238 239 239 240 240 241 242 243 244 245 246 246 247 248 248 249 249 250 251 252 253 254 255 257 258 259 260 261 262 262 259 257 257 255 254 255 258 260 261 262 264 267 269 272 275 278 282 286 291 296 301 306
252 251 251 250 249 249 249 250 250 249 250 250 249 249 247 245 246 246 245 244 243 241 239 238 238 239 238 237 237 237 238 238 240 241 240 240 241 241 242 242 244 244 245 247 248 248 249 249 250 250 251 251 252 253 254 255 257 257 258 258 260 261 262 260 257 257 256 255 256 258 260 260 260 262 265 267 269 272 274 278 281 285 290 294 299
252 251 250 249 248 248 248 248 249 249 249 250 250 250 249 248 248 248 247 246 246 245 243 241 240 240 240 239 239 238 237 239 242 243 242 241 241 241 242 243 244 245 246 247 249 249 250 250 250 251 252 252 253 253 254 255 256 257 257 257 258 259 260 260 258 257 257 256 256 257 259 260 260 260 263 265 266 269 271 274 277 281 284 288 292
252 251 250 249 249 248 247 248 248 249 249 249 250 250 250 250 250 250 249 249 248 246 245 245 244 243 242 242 242 240 238 239 243 244 244 244 243 242 242 243 245 246 247 248 249 250 251 251 251 252 253 253 253 254 254 255 256 257 257 257 257 258 259 259 259 258 257 256 257 257 258 259 260 260 261 263 265 267 269 271 274 277 280 283 287
252 251 250 249 249 249 248 248 248 249 249 249 250 251 251 251 251 251 252 252 250 248 248 249 248 247 247 245 244 243 242 243 245 245 246 246 245 243 242 243 245 247 248 249 249 250 251 252 252 252 253 254 254 254 254 255 256 256 257 257 257 257 258 258 259 259 258 256 256 256 256 257 259 260 260 262 264 265 267 269 271 274 277 279 282
253 252 251 250 249 249 249 249 249 250 250 251 251 252 253 253 253 252 253 253 252 251 252 252 251 250 249 248 246 246 246 246 246 247 249 248 248 248 246 246 247 247 249 250 250 251 251 252 252 253 254 254 255 255 255 255 256 256 257 257 256 256 257 257 258 259 258 257 255 255 256 256 257 259 260 261 263 264 265 267 269 271 273 275 278
255 254 254 253 251 250 250 249 250 251 251 251 252 253 254 254 255 255 255 255 254 254 253 254 253 252 252 250 249 249 248 249 249 250 251 251 252 252 250 250 251 250 251 251 252 252 252 252 253 253 254 255 256 256 256 257 257 257 257 257 256 255 255 256 257 258 259 258 256 255 256 255 256 258 259 261 261 263 264 265 267 269 270 272 275
257 256 255 255 254 253 253 252 252 253 253 253 254 255 256 257 257 257 257 257 257 256 255 255 254 254 254 253 253 252 252 252 251 251 252 253 254 254 254 255 254 253 253 253 253 253 254 254 254 254 254 255 256 257 257 258 258 258 258 257 256 255 255 255 256 257 257 258 257 257 256 256 256 256 258 259 260 261 262 264 265 267 268 269 272
258 257 255 255 254 254 255 255 255 257 258 258 259 259 259 260 260 259 259 259 258 257 257 256 256 255 256 256 256 256 255 254 254 254 253 254 255 255 256 257 256 255 254 254 254 254 254 255 255 255 255 256 256 257 257 258 258 259 259 258 257 256 256 256 256 256 257 257 258 258 258 257 256 256 256 258 259 259 260 262 263 265 265 266 269
257 257 257 257 256 255 256 256 258 260 261 262 263 263 264 263 263 262 261 260 260 259 258 257 257 257 257 257 257 257 256 255 256 257 256 255 256 257 257 258 258 256 256 256 256 256 256 255 255 255 256 256 257 257 257 257 258 258 258 258 258 257 257 256 256 256 256 257 257 258 258 258 256 255 255 257 258 258 258 260 261 262 263 264 266
256 257 258 258 258 259 259 260 261 262 263 264 265 266 268 268 267 266 265 264 262 261 260 260 259 258 258 258 258 258 258 257 258 258 258 258 258 258 259 260 259 257 257 257 257 257 257 257 256 256 255 256 256 257 257 257 257 257 257 257 257 257 257 257 256 256 256 257 257 258 259 259 257 255 254 255 256 256 257 258 259 260 261 262 264
258 257 258 258 259 260 261 263 264 266 266 267 268 268 269 269 269 269 269 267 266 264 264 263 262 261 260 259 259 259 259 259 259 259 259 260 260 260 261 261 260 259 259 259 259 259 259 259 258 257 255 255 255 256 256 256 256 256 256 256 257 257 257 257 257 256 256 256 257 258 258 259 257 255 255 255 255 256 256 256 257 259 259 260 262
259 259 260 260 260 260 261 262 264 266 268 269 270 270 270 270 270 270 270 269 268 267 266 266 265 264 263 262 262 261 260 260 260 260 260 261 261 262 263 262 262 261 261 260 260 260 260 260 260 259 257 255 255 256 257 256 256 256 255 256 256 256 256 257 257 256 256 256 257 258 258 258 257 256 255 255 254 256 256 255 256 257 258 259 260
260 261 261 261 262 262 263 264 265 267 268 269 270 270 271 271 272 272 272 271 270 269 268 268 267 267 266 265 265 264 263 262 261 261 261 261 262 263 263 264 263 263 262 262 261 261 261 261 261 260 259 257 256 256 257 257 256 256 255 255 256 257 257 257 257 256 257 257 257 258 259 258 257 256 256 255 255 255 256 255 255 256 256 257 258
260 261 261 261 262 263 264 266 267 268 270 270 270 271 271 272 273 274 274 273 273 272 271 270 269 268 267 267 267 266 266 265 263 262 262 263 263 263 263 264 264 264 263 262 262 261 262 262 262 261 260 259 258 257 258 258 257 256 255 255 256 257 257 257 256 256 256 256 256 257 258 258 258 257 256 256 256 255 256 255 254 254 255 255 256
260 260 261 261 262 263 265 267 268 270 271 271 271 271 272 273 273 274 274 274 274 273 273 272 271 270 269 269 268 268 267 266 265 264 263 263 263 263 263 263 264 264 264 263 263 262 262 262 262 262 262 261 260 259 259 259 258 257 256 256 256 257 258 257 256 256 256 256 255 256 257 258 257 257 256 256 256 256 256 255 254 254 254 254 255
260 260 261 262 263 264 266 267 269 270 271 272 272 272 273 273 274 274 274 274 274 274 273 273 273 272 272 271 270 269 269 268 267 266 265 264 264 264 264 264 264 264 265 265 263 262 261 262 261 262 262 261 261 260 259 259 259 258 257 257 257 257 257 257 256 255 255 255 255 255 255 256 256 256 256 256 256 257 256 256 254 253 253 253 254
260 260 261 262 264 266 267 269 270 271 271 272 273 273 274 274 274 275 275 274 274 274 274 274 274 274 273 273 271 270 269 269 268 267 266 265 265 264 264 264 264 264 265 265 265 263 261 262 262 261 261 261 261 260 260 260 259 258 257 257 257 256 257 257 256 255 254 254 254 254 255 255 256 256 256 256 256 257 257 257 255 252 252 252 253
260 260 261 263 264 266 268 269 271 271 272 272 273 274 274 275 275 275 275 275 275 275 275 275 274 274 274 273 273 272 271 270 269 268 268 266 265 265 265 264 264 264 265 265 265 265 263 263 263 262 261 261 261 260 260 260 259 259 258 257 257 257 257 257 257 255 254 253 253 253 254 255 255 255 255 255 255 256 256 257 255 252 251 251 252
260 260 261 263 264 266 268 269 271 272 272 273 274 275 275 276 276 276 276 276 276 276 276 277 276 276 275 274 273 272 271 271 270 270 269 268 267 266 265 265 264 264 265 265 265 266 265 264 264 263 262 261 261 261 260 260 260 259 258 258 257 257 257 257 257 256 255 254 253 253 254 255 254 254 254 254 255 255 256 256 254 252 251 251 251
260 261 262 263 264 266 267 269 270 271 272 274 275 276 276 277 277 277 277 277 277 278 278 278 278 278 277 276 275 274 272 271 271 270 270 269 268 267 266 265 265 265 265 265 265 266 265 265 265 265 263 262 261 260 260 261 260 260 259 259 258 257 257 257 257 257 255 254 254 254 253 254 253 253 253 253 254 254 255 255 254 252 251 251 250
261 262 263 264 265 266 267 268 270 271 273 274 275 276 277 277 278 278 278 278 278 278 279 279 279 279 278 278 277 276 275 273 272 271 270 269 269 269 268 267 266 265 265 265 266 266 266 265 265 266 265 263 262 261 260 261 261 260 260 259 259 258 257 257 257 256 255 255 255 254 254 253 252 252 252 252 253 253 253 254 254 252 251 250 250
262 263 264 265 266 267 268 269 270 272 273 275 276 277 277 277 277 277 278 278 278 279 279 279 279 279 279 278 277 277 276 275 273 272 271 270 269 269 268 268 267 266 266 266 266 266 266 266 265 265 265 265 265 263 262 261 261 260 260 260 259 259 258 257 257 257 256 255 255 254 254 254 252 251 251 252 252 251 251 252 253 252 251 251 250
262 264 265 266 267 268 269 270 272 273 274 275 276 276 277 277 277 277 278 278 279 279 279 280 279 279 279 278 277 276 276 275 274 274 273 272 270 269 269 268 268 268 267 266 266 266 266 266 265 265 265 265 265 265 264 263 261 260 260 259 259 259 259 258 258 257 257 256 255 254 254 253 252 250 250 251 251 250 250 250 251 251 251 252 251
263 264 265 267 268 269 271 272 273 274 276 276 276 276 277 277 277 278 278 279 280 280 281 281 281 280 279 278 277 275 275 274 274 274 273 272 271 270 269 269 268 268 267 267 266 266 266 266 265 265 264 264 265 265 265 265 263 261 260 260 259 258 258 258 258 257 256 256 255 254 253 253 252 250 248 249 250 248 248 249 249 249 250 252 252
262 263 265 267 269 270 271 273 274 275 277 277 277 277 278 278 278 279 280 280 281 282 282 283 283 282 281 280 278 276 275 274 273 273 273 272 271 270 270 269 268 268 267 266 266 266 266 266 265 265 264 263 263 264 264 264 264 263 261 260 259 258 258 258 258 257 256 256 255 255 254 253 252 249 247 248 248 247 247 248 248 248 249 250 252
262 263 265 267 270 271 272 273 275 276 277 277 278 278 279 279 280 280 281 282 282 283 284 283 283 282 281 281 280 278 277 275 274 273 272 272 271 271 270 269 268 267 267 266 266 265 265 265 265 264 264 263 263 263 262 262 262 263 263 262 260 259 258 258 258 257 256 256 256 255 254 253 252 249 247 247 247 246 246 248 249 249 250 251 253
264 265 266 268 270 272 273 274 276 276 277 277 278 278 279 280 281 281 282 282 283 284 284 284 283 283 282 281 281 280 278 277 275 274 273 272 271 270 270 269 268 267 266 266 265 265 264 264 264 264 263 263 262 262 261 261 260 261 262 262 262 261 260 259 258 257 256 255 255 255 254 253 251 249 246 246 246 245 246 247 249 250 251 251 253
265 266 267 268 270 272 273 275 276 276 276 277 277 279 280 281 281 282 282 282 283 284 285 285 284 284 283 282 282 281 279 278 277 275 274 273 271 270 269 268 268 267 266 265 264 264 264 263 263 263 262 262 261 261 261 260 260 260 261 261 261 262 261 260 258 257 255 255 254 254 253 252 251 249 247 246 245 245 245 247 248 249 249 250 252
264 266 268 270 272 273 274 274 274 275 275 277 278 279 280 281 281 282 282 283 284 284 285 285 285 285 284 284 283 282 280 279 278 277 275 274 272 271 269 268 267 266 265 264 264 263 263 262 262 262 261 261 261 260 260 260 259 259 259 259 260 260 260 260 259 257 254 254 254 253 253 252 251 249 248 247 246 246 246 247 247 247 247 248 250
264 267 269 270 272 273 273 273 273 274 275 277 279 280 280 281 282 282 283 284 284 284 285 285 285 285 285 285 284 283 282 280 279 277 276 275 273 272 270 268 267 265 264 263 263 262 262 262 261 261 260 261 260 260 260 259 259 258 258 258 258 258 258 258 258 258 255 254 253 252 252 251 251 250 249 248 248 248 248 247 247 247 246 247 249
264 267 268 269 271 272 272 272 274 275 276 278 279 279 280 281 282 283 284 284 284 285 285 285 285 285 286 286 286 285 283 282 280 279 277 276 275 273 271 269 267 266 264 263 262 261 261 260 260 260 260 260 260 259 258 259 258 257 257 257 257 257 256 256 256 257 256 254 253 252 251 251 251 250 250 249 249 249 249 249 248 247 246 246 247
264 266 267 269 270 271 272 273 275 276 277 277 278 279 281 282 283 284 284 284 284 285 285 285 285 286 286 287 286 285 284 283 281 279 278 277 275 274 271 269 268 266 265 264 262 261 260 259 259 259 259 258 259 258 257 257 257 257 256 256 256 256 256 256 256 255 254 253 253 252 251 251 251 251 251 250 250 249 249 249 249 247 244 244 245
264 265 267 269 270 271 272 274 275 276 276 277 278 280 282 283 284 284 284 284 284 285 285 285 286 286 287 287 286 285 284 283 281 280 278 277 275 273 271 269 268 266 265 264 263 262 261 259 259 258 258 258 257 257 257 256 256 256 256 255 255 255 255 255 254 253 253 253 252 252 252 251 251 251 251 251 250 250 249 249 248 246 244 243 244
264 265 267 269 271 272 273 274 275 275 276 278 280 282 284 285 285 285 285 285 285 285 286 286 286 287 287 287 286 285 284 283 281 279 277 276 274 273 271 269 268 267 266 264 264 263 262 260 259 258 258 257 256 256 256 255 255 255 255 255 254 253 254 253 252 251 251 252 251 251 251 252 251 251 252 252 250 250 250 249 248 246 244 244 244
263 265 267 269 271 273 274 274 274 275 277 279 282 285 286 287 287 287 286 286 286 286 287 287 287 287 287 286 285 284 283 282 280 278 276 275 273 271 270 269 268 267 266 265 264 263 262 261 260 259 258 257 256 255 255 254 254 254 254 254 253 252 251 251 251 250 250 250 250 249 251 252 252 252 252 252 251 250 249 249 248 246 244 244 244
262 265 267 270 272 273 274 274 275 276 279 282 285 287 289 289 289 288 288 288 287 287 288 288 288 288 287 286 285 284 283 282 280 278 276 274 272 271 270 269 268 267 266 266 265 264 262 261 260 259 258 257 256 255 254 253 252 252 251 252 251 250 249 249 249 249 249 248 247 247 249 251 251 251 250 251 251 250 249 249 248 246 244 244 244
262 265 268 271 272 273 274 275 277 278 281 284 287 289 291 291 290 290 289 289 289 289 289 289 288 288 287 286 285 284 283 282 280 278 275 273 272 270 269 268 267 266 266 265 265 264 263 262 260 259 258 257 255 254 253 252 251 250 250 250 250 249 249 248 248 247 248 247 245 244 247 249 249 249 248 249 250 250 249 249 248 247 245 244 245